This demonstration page uses our WeatherBlox Daily Observations layout. Learn more.

Left ArrowRight Arrow

44.8408, -93.29828

Hourly Observations for September 22, 2022

Temp ( °F °C ) Dew Point ( °F °C ) Humidity (%) Winds ( mph kmh ) Pressure ( in mb ) Visibility ( mi km ) Precip ( " mm )
12:53 am 00:53 Clear 51 10.6 46 7.8 83 83 NW 8 13 30.20 1023 10 16 0.00 0.00
1:53 am 01:53 Clear 51 10.6 45 7.2 79 79 NW 9 15 30.21 1023 10 16 0.00 0.00
2:53 am 02:53 Clear 50 10 45 7.2 83 83 NW 9 15 30.22 1024 10 16 0.00 0.00
3:53 am 03:53 Clear 50 10 44 6.7 80 80 NNW 8 13 30.23 1024 10 16 0.00 0.00
4:53 am 04:53 Clear 49 9.4 44 6.7 83 83 NW 7 11 30.25 1024 10 16 0.00 0.00
5:53 am 05:53 Clear 48 8.9 44 6.7 86 86 NW 6 9 30.26 1025 10 16 0.00 0.00
6:53 am 06:53 Clear 47 8.3 44 6.7 90 90 NNW 6 9 30.27 1025 10 16 0.00 0.00
7:53 am 07:53 Sunny 49 9.4 45 7.2 86 86 NW 7 11 30.30 1026 10 16 0.00 0.00
8:53 am 08:53 Mostly Sunny 53 11.7 44 6.7 71 71 N 9 15 30.34 1027 10 16 0.00 0.00
9:53 am 09:53 Mostly Sunny 56 13.3 42 5.6 60 60 NNE 8 13 30.35 1028 10 16 0.00 0.00
10:53 am 10:53 Partly Cloudy 58 14.4 41 5 53 53 N 10 17 30.33 1027 10 16 0.00 0.00
11:53 am 11:53 Partly Cloudy 61 16.1 39 3.9 44 44 NNE 10 17 30.32 1027 10 16 0.00 0.00
12:53 pm 12:53 Mostly Cloudy 61 16.1 40 4.4 46 46 VRB 6 9 30.31 1027 10 16 0.00 0.00
1:53 pm 13:53 Mostly Sunny 62 16.7 39 3.9 42 42 Calm 30.29 1026 10 16 0.00 0.00
2:53 pm 14:53 Mostly Sunny 63 17.2 37 2.8 38 38 Calm 30.27 1025 10 16 0.00 0.00
3:53 pm 15:53 Mostly Sunny 63 17.2 36 2.2 36 36 Calm 30.25 1024 10 16 0.00 0.00
4:53 pm 16:53 Mostly Cloudy 63 17.2 36 2.2 36 36 SSE 6 9 30.24 1024 10 16 0.00 0.00
5:53 pm 17:53 Mostly Cloudy 62 16.7 36 2.2 38 38 VRB 5 7 30.23 1024 10 16 0.00 0.00
6:53 pm 18:53 Mostly Cloudy 60 15.6 38 3.3 44 44 SE 5 7 30.22 1023 10 16 0.00 0.00
7:53 pm 19:53 Mostly Cloudy 60 15.6 40 4.4 47 47 SSE 6 9 30.21 1023 10 16 0.00 0.00
8:53 pm 20:53 Mostly Cloudy 58 14.4 42 5.6 55 55 E 7 11 30.20 1023 10 16 0.00 0.00
9:53 pm 21:53 Partly Cloudy 57 13.9 42 5.6 57 57 SE 9 15 30.20 1023 10 16 0.00 0.00
10:53 pm 22:53 Mostly Cloudy 55 12.8 43 6.1 64 64 SE 7 11 30.19 1022 10 16 0.00 0.00
11:53 pm 23:53 Partly Cloudy 54 12.2 43 6.1 66 66 SSE 8 13 30.19 1022 10 16 0.00 0.00

Powered by AerisWeather